Regional Weather Roundup
Issued by NWS

Home | Current Version | Previous Version | Graphics & Text | Print | Product List | Glossary On
Versions: 1 2 3 4 5 6 7 8 9 10 11 12 13 14 15 16 17 18 19 20 21 22 23 24 25 26 27 28 29 30 31 32 33 34 35 36 37 38 39 40 41 42 43 44 45 46 47 48 49 50
000
ASUS45 KTFX 271004
RWRMT
MONTANA HOURLY WEATHER ROUNDUP
NATIONAL WEATHER SERVICE GREAT FALLS MT
304 AM MST FRI FEB 27 2015

NOTE: "FAIR" INDICATES FEW OR NO CLOUDS BELOW 12000 FEET WITH NO
SIGNIFICANT WEATHER AND/OR OBSTRUCTIONS TO VISIBILITY.

* THESE STATIONS ARE NOT UNDER NWS QUALITY CONTROL. THEY DO NOT
   REPORT WEATHER SUCH AS PRECIPITATION OR FOG.

MTZ001>007-043-271100-
WEST OF THE DIVIDE
CITY           SKY/WX    TMP DP  RH WIND       PRES   REMARKS
KALISPELL      CLOUDY    28  16  61 CALM      29.91S
MISSOULA       CLOUDY    25  12  58 SE14      29.92F WCI  13
BUTTE          PTCLDY     7   1  76 CALM      29.87S
MULLAN PASS    LGT SNOW  19  18  96 S6        29.77S WCI  11
* ANACONDA     PTCLDY    10   3  73 SW6        N/A
* ESSEX        N/A       16  10  77 SE6G11     N/A   WCI   7
* LINCOLN      N/A        2  -2  83 N/A        N/A
* LOOKOUT PASS N/A       26  21  81 S5         N/A   WCI  20
* POLSON       N/A       25  18  75 N/A        N/A
* RONAN APT    MOCLDY    27  23  85 N/A        N/A
* SEELEY LAKE  N/A       10   6  84 NE1        N/A
* THOMP F APT  CLOUDY    18   8  65 N/A        N/A
$$

MTZ008-052>055-271100-
SOUTHWEST MONTANA
CITY           SKY/WX    TMP DP  RH WIND       PRES   REMARKS
BOZEMAN        PTCLDY     7   1  76 S5        29.96F WCI  -2
DILLON         CLOUDY    14   9  80 CALM      29.88F
* W YELLOWSTON PTCLDY    -5 -11  75 N/A        N/A
* THREE FORKS  PTCLDY     9   1  70 N/A        N/A
* BOULDER HILL N/A        7   2  80 SW11       N/A   WCI  -8
* MONIDA PASS  N/A        9   7  91 W3         N/A
* RAYNOLDS PAS N/A        2  -6  69 N/A        N/A
* WHITEHALL    N/A        8   3  80 E1G6       N/A
* WISE RIVER   N/A       10   3  73 SE6        N/A
$$

MTZ009>010-012-014-046-048-049-054-271100-
EAST SLOPES AND CENTRAL MONTANA
CITY           SKY/WX    TMP DP  RH WIND       PRES   REMARKS
CUT BANK       CLOUDY     5   3  91 SE3       29.93F
GREAT FALLS    PTCLDY    10   3  73 S7        29.94F WCI  -1
HELENA         PTCLDY    10   5  80 NW6       29.98F
* DEARBORN     N/A        7   3  83 SE3        N/A
* EAST GLACIER N/A        9   6  87 VRB1       N/A
* MONARCH      N/A        1  -6  72 SE2G8      N/A
* PENDROY      N/A        4   2  91 SW4        N/A
* ROGERS PASS  N/A        9   3  76 W4G9       N/A
* SWEET GRASS  N/A        4   1  87 S12G17     N/A   WCI -12
$$

MTZ011-013-016-021-035-040-045-047-050-051-271100-
NORTH CENTRAL MONTANA
CITY           SKY/WX    TMP DP  RH WIND       PRES   REMARKS
HAVRE          CLEAR      0  -4  83 E5        30.06F WCI -11
LEWISTOWN      PTCLDY    -8 -13  78 SE7       29.93F WCI -23
* N BAR RANCH  CLEAR      3  -8  60 N10       29.93F WCI -12
* CHESTER      N/A        5  -1  76 S2         N/A
* DENTON       N/A        8  -2  63 SE15G20    N/A   WCI  -9
* GEYSER       N/A       -3  -8  79 SW8        N/A   WCI -18
* JUDITH GAP   N/A       -7 -10  86 SE9        N/A   WCI -24
* LOMA         N/A        5   0  80 E6         N/A   WCI  -6
$$

MTZ017>020-022>027-061-062-271100-
NORTHEAST MONTANA
CITY           SKY/WX    TMP DP  RH WIND       PRES   REMARKS
GLASGOW        CLEAR      1  -6  72 SE12      30.20F WCI -16
GLENDIVE       CLEAR      0  -6  75 S5        30.26F WCI -11
JORDAN         CLEAR      1  -6  72 CALM      30.17F
SIDNEY         CLEAR     -4 -15  58 CALM      30.35F
WOLF POINT     CLEAR     -2  -8  75 NE6       30.28F WCI -14
* BEAVER HILL  N/A        0  -7  72 SE11       N/A   WCI -17
* CIRCLE       N/A       -1  -6  79 N/A        N/A
* LINDSAY DVD  N/A       -4  -8  83 SE7        N/A   WCI -18
* NAVAJO       N/A       -3  -8  79 S10        N/A   WCI -20
* SACO         N/A        2  -6  69 S4G9       N/A
$$

MTZ028>042-056>058-271100-
SOUTHCENTRAL AND SOUTHEAST MONTANA
CITY           SKY/WX    TMP DP  RH WIND       PRES   REMARKS
BAKER          CLEAR     -4  -9  79 SE8       30.23F WCI -19
BILLINGS       PTCLDY     1   0  95 S3        30.05F
LIVINGSTON     CLOUDY     5   0  80 CALM      29.95F
MILES CITY     CLEAR      0  -8  68 S9        30.21F WCI -15
* LAUREL APT   PTCLDY     0  -8  68 N/A        N/A
* ROUNDUP APT  PTCLDY     0  -9  65 S8         N/A   WCI -14
* ALZADA       N/A      -10 -15  78 E4         N/A
* HYSHAM       N/A        4  -6  63 W2G9       N/A
* LAME DEER    N/A       -1  -6  79 S12G19     N/A   WCI -19
* REED POINT   N/A       -4  -6  91 N/A        N/A
$$

REGIONAL REPORTS...DAKOTAS
CITY           SKY/WX    TMP DP  RH WIND       PRES   REMARKS
WILLISTON      MOCLDY   -13 -18  78 CALM      30.33F
DICKINSON      CLEAR     -6 -11  78 S7        30.28F WCI -20
BEACH          CLEAR      0  -6  75 S12       30.26F WCI -17
CROSBY         CLEAR     -9 -13  82 SW12      30.33F WCI -29
WATFORD CITY   CLEAR    -13 -18  78 CALM      30.31F
BISMARCK       PTCLDY   -11 -17  74 CALM      30.44F
GRAND FORKS    PTCLDY   -11 -18  70 SW5       30.45F WCI -23
FARGO          PTCLDY   -11 -17  74 SW7       30.49S WCI -26
BUFFALO SD     CLEAR     -6 -11  78 S8        30.16F WCI -21
RAPID CITY     CLEAR     -6 -11  78 SE3       30.27F
$$

REGIONAL REPORTS...WYOMING/IDAHO/WASHINGTON
CITY           SKY/WX    TMP DP  RH WIND       PRES   REMARKS
GILLETTE       CLEAR      1  -6  72 S15       30.08F WCI -18
SHERIDAN       PTCLDY    -9 -17  67 CALM      30.05F
CODY           PTCLDY     3   0  87 S6        29.94F WCI  -8
YELLOWSTONE LA PTCLDY   -11 -18  70 CALM      29.82F
SALMON         CLOUDY    28  19  69 CALM      29.85S
MULLAN PASS    LGT SNOW  19  18  96 S6        29.77S WCI  11
SAND POINT     CLOUDY    30  30 100 CALM      29.90S
SPOKANE        MOCLDY    30  28  92 NE5       29.86F WCI  25
$$

REGIONAL REPORTS...ALBERTA
CITY           SKY/WX    TMP DP  RH WIND       PRES   REMARKS
EDMONTON       LGT SNOW  10   3  73 NW6       30.13R

$$




USA.gov is the U.S. government's official web portal to all federal, state and local government web resources and services.